Find Kosmos-1249

NORAD ID: 12319 Int'l Des: 1981-021 Owner: VMF Country: SU operational
LEOCIRCULAR

現在のビュー

3D地球を読み込み中...

Kosmos-1249について

説明を読み込み中...

次回通過

Passes for default location (London). Set your location on the main map for personalized predictions.

高度履歴

Loading altitude history...

軌道要素

1 12319U 81021A 26151.19926818 -.00000036 00000-0 45458-4 0 9997
2 12319 64.9622 186.0047 0067618 273.7144 85.6187 13.86773828292493
Epoch: May 31, 2026 • Age: 8 hours

現在のステータス

高度 928.5 km
速度 7.40 km/s
衛星直下点 -23.85°S, 62.59°W
打ち上げ日 Mar 5, 1981
運用期間 45.2 years
タイプ other

技術仕様

分類 Payload
質量 1154.00 kg
乾燥質量 1154.00 kg
総質量 4300.00 kg
長さ 5.80 m
直径 1.30 m
スパン 5.80 m
形状 Cyl
製造者 KOMET
バスタイプ US-A reactor
フェーズステータス In Orbit
所有者/国 VMF/SU

Most Searched